SCP
1 1 1 0 0 0 0 0 0 0 0 0 0 0 0 0 0 0 0 0 0 0 0 0 0 0 0 0 0 0 0 0 0 0 0 0 0 0 0 0 0 0 0 0
1 1 0 0 0 0 0 0 0 0 0 0 0 0 0 0 0 0 0 0 0 0 0 0 0 0 0 0 0 0 0 0 0 0 0 0 0 0 0 0 0 0 0 0
1 1 0 0 0 0 0 0 0 0 0 0 0 0 0 0 0 0 0 0 0 0 0 0 0 0 0 0 0 0 0 0 0 0 0 0 0 0 0 0 0 0 0 0
0 0 0 0 0 0 0 0 0 0 0 0 0 0 0 0 0 0 0 0 0 0 0 0 0 0 0 0 0 0 0 0 0 0 0 0 0 0 0 0 0 0 0 0
0 0 0 0 0 0 0 0 0 0 0 0 0 0 0 0 0 0 0 0 0 0 0 0 0 0 0 0 0 0 0 0 0 0 0 0 0 0 0 0 0 0 0 0
0 0 0 0 0 0 0 0 0 0 0 0 0 0 0 0 0 0 0 0 0 0 0 0 0 0 0 0 0 0 0 0 0 0 0 0 0 0 0 0 0 0 0 0
0 0 0 0 0 0 0 0 0 0 0 0 0 0 0 0 0 0 0 0 0 0 0 0 0 0 0 0 0 0 0 0 0 0 0 0 0 0 0 0 0 0 0 0
0 0 0 0 0 0 0 0 0 0 0 0 0 0 0 0 0 0 0 0 0 0 0 0 0 0 0 0 0 0 0 0 0 0 0 0 0 0 0 0 0 0 0 0
0 0 0 0 0 0 0 0 0 0 0 0 0 0 0 0 0 0 0 0 0 0 0 0 0 0 0 0 0 0 0 0 0 0 0 0 0 0 0 0 0 0 0 0
0 0 0 0 0 0 0 0 0 0 0 0 0 0 0 0 0 0 0 0 0 0 0 0 0 0 0 0 0 0 0 0 0 0 0 0 0 0 0 0 0 0 0 0
0 0 0 0 0 0 0 0 0 0 0 0 0 0 0 0 -0 0 0 0 0 0 0 0 0 0 0 0 0 0 0 0 0 0 0 0 0 0 0 0 0 0 0 0
0 0 0 0 0 0 0 0 0 0 0 0 0 0 0 -0 -0 0 0 0 0 0 0 0 0 0 0 0 0 0 0 0 0 0 0 0 0 0 0 0 0 0 0 0
0 0 0 0 0 0 0 0 0 0 0 0 0 0 0 -0 -0 -0 0 0 0 0 0 0 0 0 0 0 0 0 0 0 0 0 0 0 0 0 0 0 0 0 0 0
0 0 0 0 0 0 0 0 0 0 0 0 -0 -0 -0 -0 -0 -0 0 0 0 0 0 0 0 0 0 0 0 0 0 0 0 0 0 0 0 0 0 0 0 0 0 0
0 0 0 0 0 0 0 0 0 0 0 0 0 0 0 0 -0 0 0 0 0 0 0 0 0 0 0 0 0 0 0 0 0 0 0 0 0 0 0 0 0 0 0 0
0 0 0 0 0 0 0 0 0 0 0 0 0 0 0 0 0 0 0 0 0 0 0 0 0 0 0 0 0 0 0 0 0 0 0 0 0 0 0 0 0 0 0 0
0 0 0 0 0 0 0 0 0 0 0 0 0 0 0 0 0 0 0 0 0 0 0 0 0 0 0 0 0 0 0 0 0 0 0 0 0 0 0 0 0 0 0 0
0 0 0 0 0 0 0 0 0 0 0 0 0 0 0 0 0 0 0 0 0 0 0 0 0 0 0 0 0 0 0 0 0 0 0 0 0 0 0 0 0 0 0 0
0 0 0 0 0 0 0 0 0 0 0 0 0 0 0 0 0 0 0 0 0 0 0 0 0 0 0 0 0 0 0 0 0 0 0 0 0 0 0 0 0 0 0 0
0 0 0 0 0 0 0 0 0 0 0 0 0 0 0 0 0 0 0 0 0 0 0 0 0 0 0 0 0 0 0 0 0 0 0 0 0 0 0 0 0 0 0 0
0 0 0 0 0 0 0 0 0 0 0 0 0 0 0 0 0 0 0 0 0 0 0 0 0 0 0 0 0 0 0 0 0 0 0 0 0 0 0 0 0 0 0 0
0 0 0 0 0 0 0 0 0 0 0 0 0 0 0 0 0 0 0 0 0 0 0 0 0 0 0 0 0 0 0 0 0 0 0 0 0 0 0 0 0 0 0 0
0 0 0 0 0 0 0 0 0 0 0 0 0 0 0 0 0 0 0 0 0 0 0 0 0 0 0 0 0 0 0 0 0 0 0 0 0 0 0 0 0 0 0 0
0 0 0 0 0 0 0 0 0 0 0 0 0 0 0 0 0 0 0 0 0 0 0 0 0 0 0 0 0 0 0 0 0 0 0 0 0 0 0 0 0 0 0 0
0 0 0 0 0 0 0 0 0 0 0 0 0 0 0 0 0 0 0 0 0 0 0 0 0 0 0 0 0 0 0 0 0 0 0 0 0 0 0 0 0 0 0 0
0 0 0 0 0 0 0 0 0 0 0 0 0 0 0 0 0 0 0 0 0 0 0 0 0 0 0 0 0 0 0 0 0 0 0 0 0 0 0 0 0 0 0 0
Wind_Speed
4 5 4 6 8 9 6 4 4 5 6 7 8 8 8 9 7 7 6 6 7 7 6 5 5 5 5 4 5 4 4 2 3 2 2 3 3 3 3 3 4 5 4 4
4 2 6 9 8 7 4 3 3 3 5 6 6 7 7 10 10 9 8 8 9 7 6 5 5 4 5 5 5 4 3 2 2 1 0 0 1 2 2 3 4 4 4 4
6 3 8 9 7 5 4 5 5 4 2 1 1 4 2 4 4 4 5 8 10 12 10 8 6 5 5 5 5 4 3 3 1 1 1 2 3 3 4 4 4 4 4 4
3 4 7 6 6 6 4 6 6 4 1 3 3 2 4 4 5 6 6 7 9 9 9 8 7 6 6 5 5 5 4 2 1 2 2 1 1 1 2 2 3 4 4 4
4 6 6 5 6 7 7 5 4 2 2 2 1 3 6 2 5 7 7 8 8 9 10 9 8 8 6 5 5 4 3 2 1 1 2 1 1 1 2 2 4 4 4 4
3 3 5 6 3 5 4 3 5 5 5 2 4 5 5 6 8 7 6 7 8 9 9 8 7 6 5 4 4 4 3 2 2 1 1 2 1 0 2 3 3 3 3 3
2 1 1 3 3 2 5 6 5 5 4 6 3 4 8 6 6 7 8 8 8 8 8 8 7 7 6 6 5 4 4 3 3 2 1 2 2 1 1 1 1 2 2 2
2 2 3 2 5 5 4 8 7 4 4 5 2 3 5 2 3 5 7 8 8 8 8 9 9 8 7 7 6 5 5 3 3 3 2 2 2 2 1 1 1 2 2 3
4 2 2 1 2 5 4 3 6 6 2 2 3 2 3 0 2 4 5 7 9 9 9 9 8 8 7 7 7 7 6 4 4 4 3 3 3 2 2 2 2 2 2 3
5 2 2 1 4 3 5 6 5 4 2 2 2 3 5 7 8 6 7 8 8 8 8 8 8 8 7 7 6 6 5 5 4 4 4 3 3 3 2 1 2 3 3 3
4 4 1 1 3 4 2 2 5 4 4 5 2 7 7 11 9 8 9 8 8 9 8 8 7 7 7 6 6 5 5 4 4 5 4 3 3 2 2 1 2 2 2 2
4 6 2 4 5 5 5 5 7 4 3 4 3 8 5 8 8 8 8 7 7 8 8 7 7 6 5 6 5 5 5 5 5 5 4 3 2 2 2 2 2 1 1 2
5 6 3 5 6 1 3 5 6 6 4 4 3 7 3 3 5 6 7 7 7 7 7 6 6 6 6 6 5 5 5 6 5 5 4 3 2 3 3 3 2 1 1 1
6 5 6 7 7 5 5 5 6 6 4 4 6 6 3 5 6 6 7 8 7 7 8 7 6 6 6 6 6 5 5 6 6 5 5 4 4 4 4 3 3 2 2 1
6 4 5 6 6 5 7 8 8 8 9 8 7 6 7 10 11 9 8 7 7 7 7 8 8 7 6 6 5 6 6 5 5 6 6 6 5 4 4 3 3 3 2 2
4 4 1 3 4 4 6 9 10 10 8 8 5 6 7 5 5 5 7 8 8 8 8 9 8 7 7 7 7 6 6 6 5 6 7 6 5 5 5 4 4 3 3 3
4 5 3 4 5 2 7 11 12 9 8 10 10 10 4 4 7 8 8 8 8 8 8 8 8 8 8 7 7 7 7 6 6 6 6 5 6 6 6 5 4 4 4 3
8 6 4 2 2 6 11 7 10 12 10 10 8 8 11 10 8 7 7 8 7 7 7 7 6 6 5 5 5 5 4 4 5 5 5 5 6 6 6 5 5 5 4 4
7 8 5 3 3 8 10 7 8 10 10 10 11 10 9 6 5 1 5 7 7 7 6 6 6 5 4 4 4 4 3 3 3 4 5 5 6 6 6 6 7 5 4 5
4 6 6 4 3 7 10 9 4 6 6 7 12 12 10 10 5 6 5 6 6 5 5 5 4 4 3 3 4 5 3 2 2 4 5 4 4 5 6 7 6 5 5 6
3 2 4 5 5 10 11 6 5 6 10 5 11 12 13 11 9 7 7 6 6 6 6 6 6 4 3 3 5 5 3 0 3 2 2 2 2 4 5 5 4 4 5 5
9 6 6 6 5 12 8 3 7 9 4 4 8 10 11 8 7 9 9 8 7 6 6 7 7 5 3 3 6 5 2 2 1 1 1 1 2 2 2 3 4 4 4 4
8 11 9 11 12 10 6 9 7 5 4 5 7 8 11 10 9 9 8 8 7 6 6 6 8 6 4 4 5 5 2 2 2 3 3 3 3 3 3 3 4 4 3 3
6 2 3 5 9 8 7 6 4 6 6 6 7 10 12 11 10 10 9 8 7 6 6 6 8 7 5 4 5 4 3 3 4 4 4 4 4 5 5 3 3 3 3 3
5 1 1 5 8 6 6 7 7 5 5 6 7 8 13 14 11 10 10 9 7 6 5 6 8 8 6 5 5 5 4 5 5 5 4 4 4 4 4 4 3 3 3 3
6 6 5 7 8 6 9 10 8 7 8 10 10 8 9 12 13 11 10 8 8 8 7 8 8 8 6 6 5 5 5 5 5 4 4 3 3 4 4 4 5 6 6 9
Wind_Direction
157 118 169 185 170 165 173 183 216 231 202 188 225 239 217 205 202 202 201 186 173 170 172 161 154 145 129 100 89 88 83 58 48 33 15 8 352 341 347 350 357 2 4 10
74 181 188 159 154 147 153 196 236 266 208 190 228 251 226 197 201 195 189 178 163 156 156 156 150 139 125 113 107 106 104 83 66 58 326 314 311 313 320 337 353 358 5 9
155 193 156 150 157 161 183 193 198 219 278 228 188 318 240 200 198 194 183 169 160 165 165 164 154 144 132 127 131 129 129 116 87 45 24 12 7 356 354 348 345 344 354 5
169 184 166 163 179 168 208 215 203 202 136 277 158 244 277 203 187 199 193 167 166 165 162 163 158 152 151 155 149 142 143 141 122 71 59 51 29 342 306 308 324 341 355 358
200 182 168 182 202 177 205 211 198 183 144 338 332 148 279 175 200 218 207 183 172 169 166 168 166 163 163 161 155 155 153 163 181 118 104 85 38 294 305 335 351 353 350 348
213 189 174 189 192 177 167 67 41 48 66 322 235 157 248 212 206 204 201 185 174 171 169 168 165 158 158 160 155 157 162 192 217 193 121 128 134 49 20 0 348 342 336 330
357 336 217 150 110 42 87 80 33 3 9 261 240 160 237 231 201 177 178 181 177 171 166 166 166 168 169 171 172 172 175 198 217 210 186 162 165 165 131 310 318 335 331 317
135 262 239 182 160 168 160 131 150 192 224 282 325 213 255 253 173 158 164 172 173 176 176 176 179 179 181 185 186 189 196 206 210 205 204 193 173 173 205 233 249 289 283 281
152 252 296 98 115 135 131 151 169 143 204 264 296 330 337 348 175 172 174 173 185 188 186 185 185 183 185 190 196 200 201 207 209 206 196 199 206 208 227 251 265 284 291 296
147 171 286 25 57 44 143 145 97 118 160 279 298 228 224 217 220 215 203 198 203 197 191 188 186 188 192 197 205 206 201 204 209 206 204 200 216 228 234 244 276 289 305 320
132 144 292 31 197 201 165 147 114 122 157 159 224 256 224 198 200 199 208 207 199 194 192 190 192 195 196 199 205 208 210 205 205 208 210 212 229 235 219 223 253 264 297 320
155 126 197 256 270 197 177 180 146 153 216 170 184 263 265 187 189 187 198 203 197 192 190 189 190 191 195 203 212 213 209 205 207 206 207 213 216 207 205 219 236 239 295 322
134 112 84 352 336 330 202 187 159 141 131 160 178 262 292 192 192 196 191 193 186 182 181 182 185 191 200 206 211 211 208 206 205 200 203 207 199 198 206 214 225 229 255 319
116 121 158 186 214 212 220 215 174 137 166 213 220 240 233 206 209 213 205 196 189 187 184 184 193 203 207 209 209 209 211 205 198 195 200 209 212 208 210 212 221 227 235 264
117 159 205 225 237 206 215 216 195 183 185 189 225 217 223 210 205 207 203 196 190 196 197 196 200 207 211 213 214 210 208 204 196 193 204 217 216 210 206 211 223 230 241 247
120 167 218 281 266 232 238 228 210 207 197 206 221 247 242 205 179 189 194 187 192 200 202 202 203 203 208 211 212 208 209 209 197 199 213 217 210 207 210 215 220 230 247 260
158 157 159 266 291 341 264 222 205 209 206 188 210 223 182 163 180 186 187 185 190 194 194 194 196 201 207 209 208 207 211 207 200 209 219 217 209 212 219 217 215 231 243 248
153 147 150 225 339 240 244 232 197 204 216 197 195 190 179 184 190 187 178 173 183 184 183 187 190 197 206 205 205 207 203 194 199 213 222 221 213 219 225 223 229 236 235 238
155 146 147 161 231 275 286 266 191 187 232 206 187 184 183 151 107 208 196 170 173 175 174 180 182 181 181 185 184 168 178 185 198 220 227 225 214 218 224 228 235 234 231 239
99 116 133 147 191 246 254 265 199 131 251 217 178 173 164 135 148 228 204 159 149 146 150 152 149 136 139 158 139 128 144 159 228 238 234 227 213 215 227 234 238 234 227 238
150 122 153 173 213 260 256 267 124 150 235 217 178 170 164 174 188 184 160 150 145 141 140 133 122 115 135 139 122 112 98 11 272 264 243 240 237 237 241 247 247 244 243 248
183 179 192 163 199 253 252 175 185 211 230 190 179 174 168 171 147 142 147 144 140 134 130 125 113 103 90 105 108 98 70 316 331 28 29 324 295 285 290 272 275 268 258 260
200 194 188 187 211 230 222 208 218 185 184 185 169 167 149 144 149 152 151 149 146 141 135 125 118 104 77 72 93 94 26 3 45 49 21 348 340 330 324 310 301 299 284 267
263 193 160 254 267 260 245 227 205 187 186 177 161 153 149 153 156 155 153 151 148 143 139 131 120 109 91 70 72 71 38 45 62 51 25 8 1 348 342 334 321 314 305 295
241 192 219 266 281 306 283 237 211 185 158 149 153 160 162 155 158 161 159 157 151 142 134 128 124 119 110 91 73 55 47 61 65 53 32 17 12 1 350 343 330 323 303 307
212 189 192 238 247 226 246 242 214 186 182 172 162 162 168 164 162 160 159 156 148 141 133 126 122 120 115 98 77 52 47 64 69 52 29 17 8 1 357 352 347 350 358 3